Ocean City, MD

11:02 PM EST on February 12, 2016 (GMT -0500)
Ocean City Municipal

Weather History for KOXB - January, 2013

Change the Weather History Date:

Thursday, January 24, 2013

  Actual Average (KSBY) Record (KSBY)
Temperature  
Mean Temperature 22 °F 35 °F  
Max Temperature 25 °F 44 °F 74 °F (1967)
Min Temperature 19 °F 27 °F 3 °F (1918)
Degree Days  
Heating Degree Days 43 30  
Month to date heating degree days 715  
Since 1 July heating degree days 2339  
Moisture  
Dew Point 15 °F    
Average Humidity 78    
Maximum Humidity 100    
Minimum Humidity 46    
Precipitation  
Precipitation 0.09 in 0.12 in 1.40 in (1999)
Month to date precipitation 2.76  
Year to date precipitation 2.76  
Sea Level Pressure  
Sea Level Pressure 30.15 in    
Wind  
Wind Speed 9 mph (North)    
Max Wind Speed 17 mph    
Max Gust Speed 25 mph    
Visibility 4 miles    
Events Fog , Snow    
T = Trace of Precipitation, MM = Missing Value Source: NWS Daily Summary

Daily Weather History Graph

Daily Weather History Graph

Search for Another Location

Airport or City:

Trip Planner

Search our weather history database for the weather conditions in past years. The results will help you decide how hot, cold, wet, or windy it might be!

Date:

Astronomy

Jan. 24, 2013 Rise Set
Actual Time 7:11 AM EST 5:14 PM EST
Civil Twilight 6:43 AM EST 5:42 PM EST
Nautical Twilight 6:11 AM EST 6:14 PM EST
Astronomical Twilight 5:39 AM EST 6:46 PM EST
Moon 3:14 PM EST (1/24) 5:06 AM EST (1/24)
Length of Visible Light 10h 59m
Length of Day
10h 02m
Waxing Gibbous, 94% of the Moon is Illuminated
Jan 24
Waxing Gibbous
Jan 26
Full
Feb 3
Last Quarter
Feb 10
New
Feb 17
First Quarter

Hourly Weather History & Observations

Time (EST) Temp. Windchill Dew Point Humidity Pressure Visibility Wind Dir Wind Speed Gust Speed Precip Events Conditions
12:53 AM 23.0 °F 17.0 °F 9.0 °F 55% 30.16 in 10.0 mi North 4.6 mph - N/A   Overcast
1:41 AM 21.2 °F 13.6 °F 12.2 °F 68% 30.13 in 3.0 mi North 5.8 mph - 0.00 in Snow Light Snow
1:53 AM 21.9 °F 15.7 °F 14.0 °F 72% 30.13 in 2.0 mi North 4.6 mph - 0.00 in Snow Light Snow
2:02 AM 21.2 °F 14.9 °F 14.0 °F 74% 30.12 in 1.8 mi North 4.6 mph - 0.00 in Snow Light Snow
2:53 AM 21.0 °F 14.6 °F 18.0 °F 88% 30.10 in 1.5 mi NNE 4.6 mph - 0.00 in Snow Light Snow
3:50 AM 21.2 °F 13.6 °F 19.4 °F 93% 30.08 in 0.8 mi North 5.8 mph - 0.02 in Snow Light Snow
3:53 AM 21.9 °F 14.5 °F 19.0 °F 89% 30.08 in 0.8 mi North 5.8 mph - 0.02 in Snow Light Snow
4:15 AM 21.2 °F 11.7 °F 21.2 °F 100% 30.07 in 0.5 mi NNE 8.1 mph - 0.01 in Fog , Snow Snow
4:45 AM 21.2 °F 9.5 °F 19.4 °F 93% 30.06 in 0.8 mi NNE 11.5 mph - 0.03 in Snow Light Snow
4:53 AM 21.9 °F 9.8 °F 19.9 °F 92% 30.06 in 1.0 mi NNE 12.7 mph - 0.03 in Snow Light Snow
5:09 AM 21.2 °F 8.9 °F 19.4 °F 93% 30.06 in 1.0 mi NNE 12.7 mph 18.4 mph 0.00 in Snow Light Snow
5:16 AM 21.2 °F 8.3 °F 19.4 °F 93% 30.07 in 1.2 mi NNE 13.8 mph 19.6 mph 0.01 in Snow Light Snow
5:30 AM 21.2 °F 8.9 °F 19.4 °F 93% 30.07 in 1.0 mi North 12.7 mph - 0.01 in Snow Light Snow
5:53 AM 21.0 °F 7.1 °F 19.0 °F 92% 30.08 in 1.0 mi North 16.1 mph 20.7 mph 0.02 in Snow Light Snow
6:32 AM 19.4 °F 6.6 °F 17.6 °F 93% 30.11 in 1.8 mi North 12.7 mph 24.2 mph 0.00 in Snow Light Snow
6:53 AM 19.0 °F 5.0 °F 16.0 °F 88% 30.13 in 1.2 mi North 15.0 mph 21.9 mph 0.00 in Snow Light Snow
7:17 AM 19.4 °F 7.2 °F 15.8 °F 86% 30.15 in 2.0 mi North 11.5 mph 23.0 mph 0.00 in Snow Light Snow
7:30 AM 19.4 °F 7.2 °F 15.8 °F 86% 30.16 in 3.0 mi NNE 11.5 mph 20.7 mph 0.00 in Snow Light Snow
7:36 AM 19.4 °F 6.6 °F 15.8 °F 86% 30.16 in 2.5 mi North 12.7 mph - 0.00 in Snow Light Snow
7:44 AM 19.4 °F 6.6 °F 15.8 °F 86% 30.15 in 3.0 mi NNE 12.7 mph 23.0 mph 0.00 in Snow Light Snow
7:53 AM 19.0 °F 4.0 °F 14.0 °F 81% 30.17 in 8.0 mi North 17.3 mph 23.0 mph 0.00 in   Overcast
8:53 AM 19.0 °F 6.8 °F 10.0 °F 68% 30.20 in 10.0 mi North 11.5 mph 23.0 mph 0.00 in   Overcast
9:53 AM 21.0 °F 7.6 °F 10.0 °F 63% 30.24 in 10.0 mi North 15.0 mph 23.0 mph 0.01 in   Clear
10:53 AM 23.0 °F 10.1 °F 10.0 °F 58% 30.28 in - North 15.0 mph 20.7 mph 0.01 in   Partly Cloudy
11:53 AM 24.1 °F 11.5 °F 10.0 °F 55% 30.29 in - NNW 15.0 mph 20.7 mph N/A   Partly Cloudy
12:53 PM 25.0 °F 12.6 °F 7.0 °F 46% 30.30 in - North 15.0 mph 24.2 mph N/A   Partly Cloudy
1:53 PM 24.1 °F 10.6 °F 7.0 °F 48% 30.32 in 10.0 mi NNW 17.3 mph 21.9 mph N/A   Mostly Cloudy
2:53 PM 25.0 °F 12.6 °F 8.1 °F 49% 30.34 in 10.0 mi North 15.0 mph 25.3 mph N/A   Mostly Cloudy